| time (UTC) | temp F | wind direction | speed MPH | gust MPH | rain 1hr in | rain 24hr in | rain mn in | humidity % | barometer mb |
| 20260508225323 | 62 | 193 | 2.0 | 4.0 | 0.00 | 0.00 | 0.00 | 54 | |
| 20260508224601 | 62 | 317 | 1.0 | 8.0 | 0.00 | 0.00 | 0.00 | 53 | |
| 20260508224052 | 62 | 12 | 1.0 | 8.0 | 0.00 | 0.00 | 0.00 | 53 | |
| 20260508223549 | 63 | 215 | 2.0 | 6.0 | 0.00 | 0.00 | 0.00 | 52 | |
| 20260508223049 | 63 | 30 | 1.0 | 6.0 | 0.00 | 0.00 | 0.00 | 52 | |
| 20260508222537 | 63 | 116 | 1.0 | 7.0 | 0.00 | 0.00 | 0.00 | 52 | |
| 20260508222039 | 63 | 281 | 4.0 | 9.0 | 0.00 | 0.00 | 0.00 | 51 | |
| 20260508221537 | 62 | 114 | 1.0 | 9.0 | 0.00 | 0.00 | 0.00 | 53 | |
| 20260508221032 | 62 | 0 | 0.0 | 4.0 | 0.00 | 0.00 | 0.00 | 50 | |
| 20260508221026 | 62 | 97 | 4.0 | 4.0 | 0.00 | 0.00 | 0.00 | 52 | |
| 20260508220248 | 62 | 133 | 1.0 | 6.0 | 0.00 | 0.00 | 0.00 | 52 | |
| 20260508215513 | 62 | 136 | 2.0 | 6.0 | 0.00 | 0.00 | 0.00 | 50 | |
| 20260508215013 | 62 | 100 | 1.0 | 11.0 | 0.00 | 0.00 | 0.00 | 51 | |
| 20260508214732 | 62 | 108 | 3.0 | 11.0 | 0.00 | 0.00 | 0.00 | 49 | |
| 20260508214000 | 62 | 112 | 0.0 | 6.0 | 0.00 | 0.00 | 0.00 | 51 | |
| 20260508213501 | 61 | 93 | 2.0 | 4.0 | 0.00 | 0.00 | 0.00 | 51 | |
| 20260508213003 | 60 | 98 | 1.0 | 4.0 | 0.00 | 0.00 | 0.00 | 52 | |
| 20260508212448 | 60 | 117 | 1.0 | 7.0 | 0.00 | 0.00 | 0.00 | 53 | |
| 20260508211948 | 60 | 137 | 2.0 | 8.0 | 0.00 | 0.00 | 0.00 | 54 | |
| 20260508211448 | 59 | 113 | 3.0 | 8.0 | 0.00 | 0.00 | 0.00 | 53 | |
| 20260508210939 | 60 | 119 | 5.0 | 10.0 | 0.00 | 0.00 | 0.00 | 52 | |
| 20260508210437 | 60 | 121 | 3.0 | 10.0 | 0.00 | 0.00 | 0.00 | 53 | |
| 20260508205936 | 59 | 127 | 3.0 | 9.0 | 0.00 | 0.00 | 0.00 | 54 | |
| 20260508205425 | 59 | 123 | 4.0 | 9.0 | 0.00 | 0.00 | 0.00 | 54 | |
| 20260508205157 | 60 | 124 | 5.0 | 10.0 | 0.00 | 0.00 | 0.00 | 53 | |
| 20260508204425 | 59 | 139 | 3.0 | 10.0 | 0.00 | 0.00 | 0.00 | 53 | |
| 20260508203913 | 60 | 103 | 4.0 | 10.0 | 0.00 | 0.00 | 0.00 | 51 | |
| 20260508203412 | 60 | 125 | 3.0 | 9.0 | 0.00 | 0.00 | 0.00 | 49 | |
| 20260508202916 | 60 | 99 | 2.0 | 8.0 | 0.00 | 0.00 | 0.00 | 46 | |
| 20260508202401 | 60 | 112 | 1.0 | 8.0 | 0.00 | 0.00 | 0.00 | 46 | |
| 20260508201900 | 62 | 110 | 3.0 | 8.0 | 0.00 | 0.00 | 0.00 | 47 | |
| 20260508201629 | 64 | 127 | 1.0 | 4.0 | 0.00 | 0.00 | 0.00 | 40 | |
| 20260508200852 | 63 | 293 | 1.0 | 4.0 | 0.00 | 0.00 | 0.00 | 34 | |
| 20260508200349 | 63 | 292 | 3.0 | 8.0 | 0.00 | 0.00 | 0.00 | 33 | |
| 20260508195848 | 64 | 289 | 2.0 | 8.0 | 0.00 | 0.00 | 0.00 | 33 | |
| 20260508195340 | 63 | 294 | 3.0 | 8.0 | 0.00 | 0.00 | 0.00 | 32 | |
| 20260508195329 | 65 | 268 | 4.0 | 6.0 | 0.00 | 0.00 | 0.00 | 31 | |
| 20260508194337 | 64 | 308 | 3.0 | 7.0 | 0.00 | 0.00 | 0.00 | 29 | |
| 20260508194046 | 64 | 54 | 2.0 | 9.0 | 0.00 | 0.00 | 0.00 | 29 | |
| 20260508193327 | 64 | 274 | 4.0 | 9.0 | 0.00 | 0.00 | 0.00 | 30 | |
| 20260508192824 | 64 | 286 | 1.0 | 9.0 | 0.00 | 0.00 | 0.00 | 33 | |
| 20260508192313 | 63 | 265 | 2.0 | 8.0 | 0.00 | 0.00 | 0.00 | 30 | |
| 20260508191813 | 63 | 126 | 0.0 | 8.0 | 0.00 | 0.00 | 0.00 | 31 | |
| 20260508191315 | 64 | 247 | 5.0 | 8.0 | 0.00 | 0.00 | 0.00 | 31 | |
| 20260508190800 | 65 | 311 | 4.0 | 8.0 | 0.00 | 0.00 | 0.00 | 29 | |
| 20260508190300 | 65 | 50 | 1.0 | 4.0 | 0.00 | 0.00 | 0.00 | 30 | |
| 20260508185800 | 64 | 312 | 2.0 | 7.0 | 0.00 | 0.00 | 0.00 | 28 | |
| 20260508185252 | 63 | 265 | 4.0 | 7.0 | 0.00 | 0.00 | 0.00 | 32 | |
| 20260508184749 | 63 | 133 | 1.0 | 8.0 | 0.00 | 0.00 | 0.00 | 33 | |
| 20260508184249 | 62 | 278 | 0.0 | 8.0 | 0.00 | 0.00 | 0.00 | 36 | |
| 20260508184231 | 62 | 318 | 3.0 | 8.0 | 0.00 | 0.00 | 0.00 | 32 | |
| 20260508183504 | 62 | 254 | 2.0 | 8.0 | 0.00 | 0.00 | 0.00 | 34 | |
| 20260508182737 | 61 | 97 | 4.0 | 6.0 | 0.00 | 0.00 | 0.00 | 36 | |
| 20260508182224 | 61 | 99 | 2.0 | 6.0 | 0.00 | 0.00 | 0.00 | 36 | |
| 20260508181724 | 63 | 272 | 2.0 | 6.0 | 0.00 | 0.00 | 0.00 | 35 | |
| 20260508181227 | 63 | 39 | 2.0 | 4.0 | 0.00 | 0.00 | 0.00 | 30 | |
| 20260508180712 | 62 | 19 | 0.0 | 7.0 | 0.00 | 0.00 | 0.00 | 35 | |
| 20260508180213 | 63 | 20 | 1.0 | 7.0 | 0.00 | 0.00 | 0.00 | 31 | |
| 20260508175713 | 62 | 38 | 2.0 | 3.0 | 0.00 | 0.00 | 0.00 | 32 | |
| 20260508175201 | 64 | 322 | 1.0 | 3.0 | 0.00 | 0.00 | 0.00 | 32 | |
| 20260508174703 | 62 | 74 | 1.0 | 7.0 | 0.00 | 0.00 | 0.00 | 36 | |
| 20260508174201 | 62 | 23 | 1.0 | 7.0 | 0.00 | 0.00 | 0.00 | 31 | |
| 20260508174132 | 61 | 329 | 4.0 | 13.0 | 0.00 | 0.00 | 0.00 | 35 | |
| 20260508173149 | 61 | 1 | 2.0 | 13.0 | 0.00 | 0.00 | 0.00 | 36 | |
| 20260508172652 | 62 | 204 | 2.0 | 6.0 | 0.00 | 0.00 | 0.00 | 31 | |
| 20260508172149 | 62 | 275 | 2.0 | 3.0 | 0.00 | 0.00 | 0.00 | 31 | |
| 20260508171651 | 62 | 295 | 2.0 | 6.0 | 0.00 | 0.00 | 0.00 | 31 | |
| 20260508171148 | 62 | 232 | 2.0 | 10.0 | 0.00 | 0.00 | 0.00 | 30 | |
| 20260508170649 | 60 | 341 | 2.0 | 10.0 | 0.00 | 0.00 | 0.00 | 32 | |
| 20260508170137 | 61 | 5 | 1.0 | 7.0 | 0.00 | 0.00 | 0.00 | 34 | |
| 20260508165637 | 62 | 236 | 2.0 | 3.0 | 0.00 | 0.00 | 0.00 | 37 | |
| 20260508165137 | 61 | 204 | 2.0 | 8.0 | 0.00 | 0.00 | 0.00 | 34 | |
| 20260508164627 | 58 | 321 | 2.0 | 10.0 | 0.00 | 0.00 | 0.00 | 36 | |
| 20260508164125 | 60 | 319 | 1.0 | 10.0 | 0.00 | 0.00 | 0.00 | 36 | |
| 20260508163625 | 60 | 298 | 1.0 | 9.0 | 0.00 | 0.00 | 0.00 | 35 | |
| 20260508163113 | 60 | 241 | 3.0 | 10.0 | 0.00 | 0.00 | 0.00 | 36 | |
| 20260508162613 | 59 | 298 | 2.0 | 10.0 | 0.00 | 0.00 | 0.00 | 33 | |
| 20260508162115 | 59 | 256 | 1.0 | 9.0 | 0.00 | 0.00 | 0.00 | 35 | |
| 20260508161609 | 59 | 356 | 4.0 | 9.0 | 0.00 | 0.00 | 0.00 | 34 | |
| 20260508161101 | 60 | 238 | 2.0 | 8.0 | 0.00 | 0.00 | 0.00 | 34 | |
| 20260508160600 | 60 | 88 | 2.0 | 8.0 | 0.00 | 0.00 | 0.00 | 37 | |
| 20260508160549 | 59 | 292 | 5.0 | 6.0 | 0.00 | 0.00 | 0.00 | 40 | |
| 20260508155549 | 59 | 223 | 1.0 | 6.0 | 0.00 | 0.00 | 0.00 | 40 | |
| 20260508155051 | 59 | 11 | 0.0 | 8.0 | 0.00 | 0.00 | 0.00 | 47 | |
| 20260508154549 | 58 | 252 | 0.0 | 8.0 | 0.00 | 0.00 | 0.00 | 43 | |
| 20260508154049 | 58 | 260 | 2.0 | 6.0 | 0.00 | 0.00 | 0.00 | 44 | |
| 20260508153551 | 57 | 281 | 2.0 | 6.0 | 0.00 | 0.00 | 0.00 | 42 | |
| 20260508153051 | 58 | 246 | 1.0 | 6.0 | 0.00 | 0.00 | 0.00 | 42 | |
| 20260508152543 | 58 | 250 | 2.0 | 6.0 | 0.00 | 0.00 | 0.00 | 42 | |
| 20260508152036 | 57 | 206 | 2.0 | 6.0 | 0.00 | 0.00 | 0.00 | 45 | |
| 20260508151537 | 57 | 284 | 2.0 | 4.0 | 0.00 | 0.00 | 0.00 | 41 | |
| 20260508151031 | 58 | 262 | 1.0 | 3.0 | 0.00 | 0.00 | 0.00 | 45 | |
| 20260508150531 | 56 | 102 | 2.0 | 6.0 | 0.00 | 0.00 | 0.00 | 42 | |
| 20260508150025 | 56 | 72 | 1.0 | 6.0 | 0.00 | 0.00 | 0.00 | 47 | |
| 20260508145518 | 57 | 191 | 1.0 | 4.0 | 0.00 | 0.00 | 0.00 | 46 | |
| 20260508145013 | 57 | 170 | 1.0 | 3.0 | 0.00 | 0.00 | 0.00 | 48 | |
| 20260508144515 | 58 | 183 | 0.0 | 2.0 | 0.00 | 0.00 | 0.00 | 45 | |
| 20260508144006 | 57 | 78 | 0.0 | 2.0 | 0.00 | 0.00 | 0.00 | 43 | |
| 20260508143502 | 56 | 150 | 0.0 | 2.0 | 0.00 | 0.00 | 0.00 | 47 | |
| 20260508143458 | 55 | 29 | 1.0 | 2.0 | 0.00 | 0.00 | 0.00 | 47 | |
| 20260508142455 | 56 | 304 | 1.0 | 3.0 | 0.00 | 0.00 | 0.00 | 50 | |
| 20260508141949 | 56 | 124 | 1.0 | 3.0 | 0.00 | 0.00 | 0.00 | 49 | |
| 20260508141449 | 55 | 293 | 2.0 | 3.0 | 0.00 | 0.00 | 0.00 | 52 | |
| 20260508140945 | 54 | 123 | 1.0 | 3.0 | 0.00 | 0.00 | 0.00 | 54 | |
| 20260508140437 | 55 | 89 | 2.0 | 4.0 | 0.00 | 0.00 | 0.00 | 52 | |
| 20260508135918 | 54 | 190 | 1.0 | 4.0 | 0.00 | 0.00 | 0.00 | 55 | |
| 20260508135413 | 53 | 266 | 2.0 | 3.0 | 0.00 | 0.00 | 0.00 | 55 | |
| 20260508134915 | 53 | 260 | 1.0 | 3.0 | 0.00 | 0.00 | 0.00 | 56 | |
| 20260508134406 | 53 | 286 | 1.0 | 3.0 | 0.00 | 0.00 | 0.00 | 57 | |
| 20260508133900 | 53 | 110 | 0.0 | 3.0 | 0.00 | 0.00 | 0.00 | 61 | |
| 20260508133400 | 52 | 111 | 1.0 | 3.0 | 0.00 | 0.00 | 0.00 | 61 | |
| 20260508132855 | 52 | 93 | 0.0 | 3.0 | 0.00 | 0.00 | 0.00 | 64 | |
| 20260508132351 | 52 | 266 | 0.0 | 4.0 | 0.00 | 0.00 | 0.00 | 64 | |
| 20260508131831 | 52 | 116 | 2.0 | 3.0 | 0.00 | 0.00 | 0.00 | 63 | |
| 20260508131324 | 51 | 265 | 1.0 | 4.0 | 0.00 | 0.00 | 0.00 | 62 | |
| 20260508130827 | 52 | 128 | 3.0 | 4.0 | 0.00 | 0.00 | 0.00 | 61 | |
| 20260508130319 | 51 | 120 | 0.0 | 2.0 | 0.00 | 0.00 | 0.00 | 65 | |
| 20260508130037 | 51 | 187 | 0.0 | 3.0 | 0.00 | 0.00 | 0.00 | 62 | |
| 20260508125254 | 49 | 238 | 2.0 | 3.0 | 0.00 | 0.00 | 0.00 | 66 | |
| 20260508124749 | 50 | 93 | 1.0 | 3.0 | 0.00 | 0.00 | 0.00 | 68 | |
| 20260508124248 | 50 | 209 | 0.0 | 2.0 | 0.00 | 0.00 | 0.00 | 64 | |
| 20260508123743 | 49 | 63 | 1.0 | 4.0 | 0.00 | 0.00 | 0.00 | 66 | |
| 20260508123240 | 49 | 92 | 1.0 | 4.0 | 0.00 | 0.00 | 0.00 | 67 | |
| 20260508122718 | 50 | 26 | 1.0 | 3.0 | 0.00 | 0.00 | 0.00 | 70 | |
| 20260508122212 | 48 | 100 | 2.0 | 3.0 | 0.00 | 0.00 | 0.00 | 68 | |
| 20260508121715 | 46 | 142 | 0.0 | 1.0 | 0.00 | 0.00 | 0.00 | 71 | |
| 20260508121207 | 46 | 231 | 0.0 | 1.0 | 0.00 | 0.00 | 0.00 | 74 | |
| 20260508120700 | 46 | 127 | 1.0 | 3.0 | 0.00 | 0.00 | 0.00 | 72 | |
| 20260508120200 | 46 | 144 | 1.0 | 3.0 | 0.00 | 0.00 | 0.00 | 74 | |
| 20260508115658 | 45 | 142 | 0.0 | 2.0 | 0.00 | 0.00 | 0.00 | 73 | |
| 20260508115359 | 44 | 147 | 0.0 | 1.0 | 0.00 | 0.00 | 0.00 | 75 | |
| 20260508114633 | 43 | 198 | 0.0 | 1.0 | 0.00 | 0.00 | 0.00 | 81 | |
| 20260508114124 | 41 | 210 | 0.0 | 0.0 | 0.00 | 0.00 | 0.00 | 88 | |
| 20260508113625 | 40 | 210 | 0.0 | 0.0 | 0.00 | 0.00 | 0.00 | 90 | |
| 20260508113118 | 40 | 210 | 0.0 | 0.0 | 0.00 | 0.00 | 0.00 | 92 | |
| 20260508112546 | 39 | 186 | 0.0 | 0.0 | 0.00 | 0.00 | 0.00 | 92 | |
| 20260508112037 | 39 | 186 | 0.0 | 0.0 | 0.00 | 0.00 | 0.00 | 92 | |
| 20260508111522 | 38 | 186 | 0.0 | 0.0 | 0.00 | 0.00 | 0.00 | 92 | |
| 20260508111013 | 38 | 186 | 0.0 | 0.0 | 0.00 | 0.00 | 0.00 | 92 | |
| 20260508110454 | 38 | 186 | 0.0 | 0.0 | 0.00 | 0.00 | 0.00 | 92 | |
| 20260508105921 | 37 | 186 | 0.0 | 0.0 | 0.00 | 0.00 | 0.00 | 92 | |
| 20260508105343 | 37 | 186 | 0.0 | 0.0 | 0.00 | 0.00 | 0.00 | 92 | |
| 20260508104824 | 37 | 186 | 0.0 | 0.0 | 0.00 | 0.00 | 0.00 | 91 | |
| 20260508104319 | 37 | 186 | 0.0 | 0.0 | 0.00 | 0.00 | 0.00 | 91 | |
| 20260508103804 | 37 | 186 | 0.0 | 0.0 | 0.00 | 0.00 | 0.00 | 91 | |
| 20260508103254 | 37 | 186 | 0.0 | 0.0 | 0.00 | 0.00 | 0.00 | 91 | |
| 20260508102749 | 37 | 186 | 0.0 | 0.0 | 0.00 | 0.00 | 0.00 | 91 | |
| 20260508102249 | 38 | 186 | 0.0 | 0.0 | 0.00 | 0.00 | 0.00 | 91 | |
| 20260508101743 | 37 | 177 | 0.0 | 0.0 | 0.00 | 0.00 | 0.00 | 90 | |
| 20260508101236 | 37 | 177 | 0.0 | 0.0 | 0.00 | 0.00 | 0.00 | 89 | |
| 20260508100737 | 37 | 177 | 0.0 | 0.0 | 0.00 | 0.00 | 0.00 | 89 | |
| 20260508100231 | 37 | 177 | 0.0 | 0.0 | 0.00 | 0.00 | 0.00 | 88 | |
| 20260508100221 | 38 | 177 | 0.0 | 0.0 | 0.00 | 0.00 | 0.00 | 88 | |
| 20260508095207 | 38 | 177 | 0.0 | 0.0 | 0.00 | 0.00 | 0.00 | 88 | |
| 20260508094649 | 38 | 174 | 0.0 | 0.0 | 0.00 | 0.00 | 0.00 | 87 | |
| 20260508094145 | 38 | 174 | 0.0 | 0.0 | 0.00 | 0.00 | 0.00 | 86 | |
| 20260508093607 | 39 | 174 | 0.0 | 0.0 | 0.00 | 0.00 | 0.00 | 86 | |
| 20260508093101 | 39 | 140 | 0.0 | 0.0 | 0.00 | 0.00 | 0.00 | 86 | |
| 20260508092835 | 39 | 151 | 0.0 | 0.0 | 0.00 | 0.00 | 0.00 | 85 | |
| 20260508092314 | 39 | 151 | 0.0 | 0.0 | 0.00 | 0.00 | 0.00 | 84 | |
| 20260508091549 | 40 | 151 | 0.0 | 0.0 | 0.00 | 0.00 | 0.00 | 84 | |
| 20260508091253 | 40 | 151 | 0.0 | 1.0 | 0.00 | 0.00 | 0.00 | 83 | |
| 20260508090718 | 40 | 156 | 0.0 | 1.0 | 0.00 | 0.00 | 0.00 | 82 | |
| 20260508085949 | 41 | 232 | 0.0 | 1.0 | 0.00 | 0.00 | 0.00 | 81 | |
| 20260508085452 | 40 | 94 | 0.0 | 1.0 | 0.00 | 0.00 | 0.00 | 83 | |
| 20260508084943 | 41 | 99 | 0.0 | 0.0 | 0.00 | 0.00 | 0.00 | 82 | |
| 20260508084915 | 41 | 84 | 0.0 | 0.0 | 0.00 | 0.00 | 0.00 | 80 | |
| 20260508083919 | 42 | 85 | 0.0 | 0.0 | 0.00 | 0.00 | 0.00 | 79 | |
| 20260508083417 | 42 | 85 | 0.0 | 1.0 | 0.00 | 0.00 | 0.00 | 79 | |
| 20260508082913 | 42 | 100 | 0.0 | 1.0 | 0.00 | 0.00 | 0.00 | 80 | |
| 20260508082407 | 42 | 165 | 0.0 | 0.0 | 0.00 | 0.00 | 0.00 | 80 | |
| 20260508082132 | 42 | 233 | 0.0 | 0.0 | 0.00 | 0.00 | 0.00 | 80 | |
| 20260508081404 | 43 | 234 | 0.0 | 2.0 | 0.00 | 0.00 | 0.00 | 78 | |
| 20260508080855 | 43 | 221 | 0.0 | 2.0 | 0.00 | 0.00 | 0.00 | 78 | |
| 20260508080350 | 42 | 281 | 1.0 | 2.0 | 0.00 | 0.00 | 0.00 | 78 | |
| 20260508075849 | 42 | 123 | 0.0 | 0.0 | 0.00 | 0.00 | 0.00 | 78 | |
| 20260508075346 | 42 | 250 | 0.0 | 1.0 | 0.00 | 0.00 | 0.00 | 77 | |
| 20260508074824 | 42 | 256 | 0.0 | 1.0 | 0.00 | 0.00 | 0.00 | 76 | |
| 20260508074540 | 42 | 38 | 0.0 | 0.0 | 0.00 | 0.00 | 0.00 | 74 | |
| 20260508074246 | 42 | 38 | 0.0 | 0.0 | 0.00 | 0.00 | 0.00 | 74 | |
| 20260508073256 | 43 | 38 | 0.0 | 0.0 | 0.00 | 0.00 | 0.00 | 74 | |
| 20260508072752 | 43 | 36 | 0.0 | 1.0 | 0.00 | 0.00 | 0.00 | 74 | |
| 20260508072253 | 43 | 40 | 0.0 | 1.0 | 0.00 | 0.00 | 0.00 | 76 | |
| 20260508071743 | 44 | 3 | 0.0 | 1.0 | 0.00 | 0.00 | 0.00 | 75 | |
| 20260508071237 | 44 | 3 | 0.0 | 1.0 | 0.00 | 0.00 | 0.00 | 72 | |
| 20260508070721 | 44 | 357 | 0.0 | 1.0 | 0.00 | 0.00 | 0.00 | 73 | |
| 20260508070143 | 44 | 357 | 0.0 | 1.0 | 0.00 | 0.00 | 0.00 | 73 | |
| 20260508065640 | 44 | 354 | 0.0 | 1.0 | 0.00 | 0.00 | 0.00 | 74 | |
| 20260508065119 | 45 | 355 | 0.0 | 3.0 | 0.00 | 0.00 | 0.00 | 72 | |
| 20260508064615 | 45 | 14 | 0.0 | 3.0 | 0.00 | 0.00 | 0.00 | 72 | |
| 20260508064114 | 45 | 9 | 0.0 | 2.0 | 0.00 | 0.00 | 0.00 | 75 | |
| 20260508063607 | 44 | 13 | 0.0 | 2.0 | 0.00 | 0.00 | 0.00 | 82 | |
| 20260508063101 | 44 | 7 | 0.0 | 1.0 | 0.00 | 0.00 | 0.00 | 87 | |
| 20260508063032 | 44 | 4 | 0.0 | 1.0 | 0.00 | 0.00 | 0.00 | 88 | |
| 20260508062036 | 43 | 0 | 1.0 | 1.0 | 0.00 | 0.00 | 0.00 | 89 | |
| 20260508061737 | 43 | 236 | 0.0 | 0.0 | 0.00 | 0.00 | 0.00 | 90 | |
| 20260508060524 | 43 | 257 | 0.0 | 0.0 | 0.00 | 0.00 | 0.00 | 89 | |
| 20260508060028 | 43 | 257 | 0.0 | 0.0 | 0.00 | 0.00 | 0.00 | 89 | |
| 20260508055520 | 43 | 257 | 0.0 | 0.0 | 0.00 | 0.00 | 0.00 | 89 | |
| 20260508055224 | 43 | 257 | 0.0 | 0.0 | 0.00 | 0.00 | 0.00 | 88 | |
| 20260508054455 | 43 | 257 | 0.0 | 0.0 | 0.00 | 0.00 | 0.00 | 87 | |
| 20260508054429 | 43 | 257 | 0.0 | 0.0 | 0.00 | 0.00 | 0.00 | 86 | |
| 20260508053433 | 43 | 257 | 0.0 | 0.0 | 0.00 | 0.00 | 0.00 | 85 | |
| 20260508053145 | 44 | 257 | 0.0 | 0.0 | 0.00 | 0.00 | 0.00 | 85 | |
| 20260508052407 | 44 | 265 | 0.0 | 0.0 | 0.00 | 0.00 | 0.00 | 84 | |
| 20260508051901 | 44 | 265 | 0.0 | 0.0 | 0.00 | 0.00 | 0.00 | 83 | |
| 20260508051401 | 45 | 266 | 0.0 | 1.0 | 0.00 | 0.00 | 0.00 | 82 | |
| 20260508050857 | 45 | 264 | 0.0 | 1.0 | 0.00 | 0.00 | 0.00 | 81 | |
| 20260508050349 | 45 | 309 | 0.0 | 2.0 | 0.00 | 0.00 | 0.00 | 81 | |
| 20260508045831 | 45 | 274 | 0.0 | 4.0 | 0.00 | 0.00 | 0.00 | 79 | |
| 20260508045313 | 46 | 282 | 2.0 | 4.0 | 0.00 | 0.00 | 0.00 | 78 | |
| 20260508045032 | 46 | 296 | 2.0 | 6.0 | 0.00 | 0.00 | 0.00 | 78 | |
| 20260508044304 | 46 | 195 | 1.0 | 9.0 | 0.00 | 0.00 | 0.00 | 77 | |
| 20260508044031 | 46 | 280 | 1.0 | 9.0 | 0.00 | 0.00 | 0.00 | 75 | |
| 20260508043255 | 46 | 297 | 1.0 | 3.0 | 0.00 | 0.00 | 0.00 | 74 | |
| 20260508042752 | 46 | 243 | 2.0 | 3.0 | 0.00 | 0.00 | 0.00 | 73 | |
| 20260508042249 | 47 | 314 | 0.0 | 2.0 | 0.00 | 0.00 | 0.00 | 71 | |
| 20260508042009 | 49 | 271 | 2.0 | 2.0 | 0.00 | 0.00 | 0.00 | 61 | |
| 20260508041237 | 48 | 164 | 1.0 | 1.0 | 0.00 | 0.00 | 0.00 | 60 | |
| 20260508040739 | 48 | 250 | 0.0 | 0.0 | 0.00 | 0.00 | 0.00 | 57 | |
| 20260508040231 | 48 | 250 | 0.0 | 0.0 | 0.00 | 0.00 | 0.00 | 57 | |
| 20260508035727 | 48 | 250 | 0.0 | 0.0 | 0.00 | 0.00 | 0.00 | 57 | |
| 20260508035207 | 47 | 243 | 0.0 | 0.0 | 0.00 | 0.00 | 0.00 | 56 | |
| 20260508034703 | 47 | 251 | 0.0 | 0.0 | 0.00 | 0.00 | 0.00 | 56 | |
| 20260508034143 | 47 | 251 | 0.0 | 0.0 | 0.00 | 0.00 | 0.00 | 55 | |
| 20260508033637 | 48 | 251 | 0.0 | 0.0 | 0.00 | 0.00 | 0.00 | 56 | |
| 20260508033119 | 48 | 251 | 0.0 | 1.0 | 0.00 | 0.00 | 0.00 | 53 | |
| 20260508032613 | 49 | 251 | 0.0 | 1.0 | 0.00 | 0.00 | 0.00 | 53 | |
| 20260508032347 | 49 | 246 | 0.0 | 1.0 | 0.00 | 0.00 | 0.00 | 52 | |
| 20260508032053 | 49 | 288 | 0.0 | 0.0 | 0.00 | 0.00 | 0.00 | 53 | |
| 20260508031049 | 49 | 289 | 0.0 | 0.0 | 0.00 | 0.00 | 0.00 | 52 | |
| 20260508031028 | 49 | 289 | 0.0 | 0.0 | 0.00 | 0.00 | 0.00 | 51 | |
| 20260508030039 | 49 | 289 | 0.0 | 0.0 | 0.00 | 0.00 | 0.00 | 50 | |
| 20260508025521 | 49 | 300 | 0.0 | 1.0 | 0.00 | 0.00 | 0.00 | 52 | |
| 20260508025013 | 50 | 308 | 0.0 | 1.0 | 0.00 | 0.00 | 0.00 | 53 | |
| 20260508024512 | 50 | 261 | 0.0 | 2.0 | 0.00 | 0.00 | 0.00 | 51 | |
| 20260508024006 | 50 | 288 | 0.0 | 2.0 | 0.00 | 0.00 | 0.00 | 49 | |
| 20260508023501 | 50 | 328 | 1.0 | 2.0 | 0.00 | 0.00 | 0.00 | 47 | |
| 20260508023001 | 50 | 289 | 1.0 | 2.0 | 0.00 | 0.00 | 0.00 | 47 | |
| 20260508022457 | 50 | 306 | 0.0 | 3.0 | 0.00 | 0.00 | 0.00 | 48 | |
| 20260508021937 | 51 | 292 | 0.0 | 3.0 | 0.00 | 0.00 | 0.00 | 47 | |
| 20260508021431 | 51 | 238 | 2.0 | 3.0 | 0.00 | 0.00 | 0.00 | 46 | |
| 20260508020927 | 51 | 312 | 0.0 | 2.0 | 0.00 | 0.00 | 0.00 | 49 | |
| 20260508020425 | 50 | 303 | 0.0 | 1.0 | 0.00 | 0.00 | 0.00 | 48 | |
| 20260508020143 | 50 | 294 | 0.0 | 2.0 | 0.00 | 0.00 | 0.00 | 47 | |
| 20260508015401 | 51 | 289 | 0.0 | 2.0 | 0.00 | 0.00 | 0.00 | 46 | |
| 20260508014857 | 51 | 267 | 1.0 | 2.0 | 0.00 | 0.00 | 0.00 | 46 | |
| 20260508014349 | 51 | 251 | 0.0 | 3.0 | 0.00 | 0.00 | 0.00 | 46 | |
| 20260508013849 | 51 | 278 | 1.0 | 3.0 | 0.00 | 0.00 | 0.00 | 45 | |
| 20260508013343 | 51 | 297 | 1.0 | 3.0 | 0.00 | 0.00 | 0.00 | 46 | |
| 20260508013103 | 51 | 273 | 0.0 | 2.0 | 0.00 | 0.00 | 0.00 | 45 | |
| 20260508012336 | 51 | 158 | 0.0 | 3.0 | 0.00 | 0.00 | 0.00 | 44 | |
| 20260508011831 | 52 | 15 | 1.0 | 3.0 | 0.00 | 0.00 | 0.00 | 44 | |
| 20260508011325 | 52 | 290 | 2.0 | 3.0 | 0.00 | 0.00 | 0.00 | 43 | |
| 20260508010827 | 52 | 108 | 1.0 | 2.0 | 0.00 | 0.00 | 0.00 | 43 | |
| 20260508010319 | 52 | 288 | 1.0 | 6.0 | 0.00 | 0.00 | 0.00 | 42 | |
| 20260508005812 | 52 | 293 | 2.0 | 6.0 | 0.00 | 0.00 | 0.00 | 41 | |
| 20260508005312 | 52 | 347 | 0.0 | 6.0 | 0.00 | 0.00 | 0.00 | 42 | |
| 20260508005041 | 52 | 277 | 0.0 | 3.0 | 0.00 | 0.00 | 0.00 | 42 | |
| 20260508004527 | 52 | 28 | 0.0 | 2.0 | 0.00 | 0.00 | 0.00 | 42 | |
| 20260508003802 | 52 | 294 | 0.0 | 2.0 | 0.00 | 0.00 | 0.00 | 41 | |
| 20260508003257 | 52 | 278 | 0.0 | 2.0 | 0.00 | 0.00 | 0.00 | 42 | |
| 20260508003233 | 52 | 270 | 0.0 | 3.0 | 0.00 | 0.00 | 0.00 | 41 | |
| 20260508002508 | 52 | 285 | 0.0 | 6.0 | 0.00 | 0.00 | 0.00 | 42 | |
| 20260508001745 | 53 | 265 | 0.0 | 7.0 | 0.00 | 0.00 | 0.00 | 41 | |
| 20260508001459 | 53 | 266 | 0.0 | 13.0 | 0.00 | 0.00 | 0.00 | 40 | |
| 20260508000737 | 53 | 285 | 1.0 | 13.0 | 0.00 | 0.00 | 0.00 | 40 | |
| 20260508000234 | 53 | 291 | 2.0 | 4.0 | 0.00 | 0.00 | 0.00 | 40 | |
| 20260507235953 | 53 | 320 | 0.0 | 6.0 | 0.00 | 0.00 | 0.00 | 40 | |
| 20260507235207 | 53 | 232 | 2.0 | 6.0 | 0.00 | 0.00 | 0.00 | 40 | |
| 20260507234701 | 53 | 351 | 1.0 | 6.0 | 0.00 | 0.00 | 0.00 | 40 | |
| 20260507234201 | 53 | 280 | 2.0 | 6.0 | 0.00 | 0.00 | 0.00 | 39 | |
| 20260507233657 | 53 | 187 | 1.0 | 6.0 | 0.00 | 0.00 | 0.00 | 39 | |
| 20260507233149 | 53 | 305 | 1.0 | 10.0 | 0.00 | 0.00 | 0.00 | 41 | |
| 20260507232648 | 54 | 264 | 0.0 | 10.0 | 0.00 | 0.00 | 0.00 | 38 | |
| 20260507232410 | 54 | 325 | 1.0 | 8.0 | 0.00 | 0.00 | 0.00 | 37 | |
| 20260507231908 | 54 | 308 | 0.0 | 9.0 | 0.00 | 0.00 | 0.00 | 37 | |
| 20260507231136 | 54 | 282 | 2.0 | 10.0 | 0.00 | 0.00 | 0.00 | 37 | |
| 20260507230633 | 55 | 1 | 2.0 | 10.0 | 0.00 | 0.00 | 0.00 | 38 | |
| 20260507230125 | 55 | 277 | 5.0 | 8.0 | 0.00 | 0.00 | 0.00 | 37 | |
| 20260507225625 | 55 | 225 | 0.0 | 7.0 | 0.00 | 0.00 | 0.00 | 40 |